Location: Six Mile Lake
(44.9000°N, 79.7170°W)
Time: 19:12:18
(UTC-04:00)

ESTCUBE 1 - Pass Details

Date: 30 June 2022
Orbit: 646 x 657 km, 97.9° (Epoch: 07 August)

Event Time Altitude Azimuth Distance (km) Brightness Sun altitude
Exits shadow 23:39:06 32° 187° (S) 1,120 ? -18.0°
Maximum altitude 23:41:05 64° 259° (WSW) 716 ? -18.1°
Drops below altitude 10° 23:45:32 10° 341° (NNW) 2,058 ? -18.5°
Sets 23:47:47 0° 345° (NNW) 2,975 ? -18.6°
